IUS DEB, 43364

Orbit data source: Space-Track

IUS DEB, 43364 is space debris originally from a launch on Fri, 23 Jul 1999 UTC launched from the Air Force Eastern Test Range (AFETR). Debris objects in space refer to the collection of defunct objects orbiting the Earth. Examples of debris include non-operational satellites, rocket bodies, and fragments generated from explosions, collisions, or faulty payload assembly.

Loading next visibility...
Identifier
43364, 1999-040M
Orbit
Active
Country
Flag of USUS
Related business
Manufacturer
Boeing/Kent
Mission
Spacecraft
Bus & Motor
Unknown
Mass
Unknown
Launch date (UTC)
1999-07-23 (27 years ago)
Launch vehicle
Unknown
Launch site
Air Force Eastern Test Range (AFETR)
Object type
Payload
Rocket body
Debris
Shape & HBR
Unknown shape, 0.1 m
Radar Cross Section
Small (<0.1 m²)

Expand to show TLE details & history
Last TLE update: 4 weeks ago

TLE from 4 weeks ago
0 IUS DEB
1 43364U 99040M   26148.27557129  .00001533  00000-0  93993-2 0  9998
2 43364  28.1210  12.5110 3772929 199.3221 141.3686  7.03171448137614
Epoch: 2026-05-28T06:36Z
TLE epoch observation values (Epoch: 2026-05-28T06:36:49.359Z)
Latitude
0.00001°
Longitude
27.48272°
Altitude
8,949.37 km
Speed
4.17 km/s
True Right ascension
00h 50m 02s
True Declination
0° 00' 00"
Sunlit
Object was in daylight at epoch
Visualization orbit readout
Latitude
Unknown
Longitude
Unknown
Altitude
Unknown
Speed
Unknown
Apparent Right ascension
Unknown
Apparent Declination
Unknown
Sunlit
N/A
Visualization observer readout
Local Sidereal Time
21:34:48
Azimuth
Unknown
Elevation
Unknown
Doppler factor
Unknown
Orbital elements
Apogee altitude
9,477.201 km
Perigee altitude
790.441 km
Semi-major axis
11,511.958 km
Eccentricity
0.37729
Inclination
28.121°
RAAN
12.511°
Arg. of periapsis
199.3221°
True anomaly
160.71416°
Mean anomaly
141.3686°
Eccentric anomaly
151.63777°
Mean motion
1.75719 °/min
Orbital period
204.87 mins
BSTAR
0.0093993
Loading maneuver chart data...
Computing Atmospheric mass density...
Loading historical data...
Loading historical data...
Loading historical data...
Loading historical data...
Loading historical data...
Loading historical data...
Loading historical data...

Documentation

Showing up to 5 results
|